[[{"header":{"parameterUnit":"m.s-1","parameterCategory":2,"la1":30.2991,"la2":30.254,"lo1":-89.0895,"lo2":-89.0444,"dy":0.0017,"dx":0.0017,"nx":28,"ny":28,"refTime":"2024-04-12T09:00:00:Z","depth":"0","parameterNumber":2,"parameterNumberName":"U-component_of_CURRENTS"},"data":[0,0,0,0,0,0,0,0,0,0,0,0,0,0,0,0,0,0,0,0,0,0,0,0,0,0,0,0,0,0,0,0,0,0,0,0,0,0,0,0,0,0,0,0,0,0,0,0,0,0,0,0,0,0,0,0,0,0,0.3168,0.3168,0,0.3122,0.3121,0.312,0.307,0.307,0.307,0.307,0.287,0.2865,0.286,0,0,0,0,0,0,0,0,0,0,0,0,0,0.3129,0.313,0.3168,0.3168,0.3168,0.3123,0.3121,0.312,0.307,0.307,0.307,0.307,0.2872,0.2866,0.2859,0,0,0,0,0,0,0,0,0,0,0,0,0,0.3113,0.313,0.3168,0.3144,0.3142,0.3123,0.3121,0.3119,0.307,0.307,0.307,0.307,0.2874,0.2866,0.2858,0.2807,0,0,0.2834,0.283,0,0,0,0,0,0,0,0,0.3114,0.3113,0.3148,0.3146,0.3144,0.311,0.3035,0.301,0.307,0.3088,0.307,0.307,0.2942,0.2928,0.2909,0.2797,0.2789,0.2833,0.2828,0.2825,0.2822,0,0,0,0,0,0,0,0.3115,0.3114,0.3141,0.3148,0.3146,0.3108,0.3106,0.3029,0.3005,0.3087,0.3085,0.3094,0.2938,0.2917,0.2904,0.2786,0.2833,0.2826,0.2821,0.2818,0.2634,0.2634,0,0,0,0,0,0,0.3143,0.3116,0.3143,0.3141,0.3139,0.311,0.3107,0.3113,0.3009,0.2998,0.3094,0.3092,0.2931,0.2913,0.2896,0.2844,0.2825,0.2817,0.2813,0.2634,0.2634,0.2634,0,0,0,0,0,0,0.3142,0.3145,0.3145,0.3134,0.3133,0.3112,0.3119,0.3113,0.3103,0.3018,0.3001,0.3093,0.293,0.2908,0.2841,0.2835,0.2814,0.2806,0.2634,0.2634,0.2634,0.2728,0,0,0,0,0,0,0.3141,0.3145,0.3153,0.3136,0.3135,0.3144,0.3119,0.3112,0.3112,0.3108,0.3011,0.2993,0.2929,0.2854,0.2833,0.2823,0.28,0.2634,0.2634,0.2634,0.2725,0.2731,0.2736,0,0,0,0,0,0.3139,0.3143,0.3153,0.3157,0.3148,0.3146,0.314,0.3119,0.3112,0.3109,0.3047,0.2996,0.2838,0.2847,0.2823,0.2811,0.2634,0.2634,0.2634,0.2722,0.273,0.2736,0,0,0,0,0,0,0.311,0.3139,0.3149,0.3157,0.3164,0.3141,0.3134,0.313,0.3081,0.307,0.2991,0.2967,0.2911,0.2847,0.286,0.2759,0.2729,0.2724,0.2804,0.281,0.2816,0.284,0.2793,0,0,0,0,0,0.3118,0.3133,0.3154,0.3155,0.3167,0.3156,0.3152,0.3145,0.3108,0.3088,0.3029,0.2955,0.2889,0.2843,0.2777,0.2713,0.2702,0.269,0.2696,0.2702,0.2705,0.2711,0.2719,0.2634,0.2634,0.2634,0,0,0.3105,0.3123,0.3129,0.3152,0.315,0.3153,0.3151,0.315,0.3139,0.3069,0.3023,0.2976,0.2881,0.282,0.2787,0.2764,0.2721,0.2701,0.2707,0.2707,0.2712,0.2721,0.2728,0.2634,0.2634,0.2634,0,0,0.3079,0.3108,0.3114,0.3129,0.3149,0.3149,0.316,0.3156,0.3144,0.3107,0.3057,0.3023,0.2907,0.2857,0.2809,0.2805,0.2762,0.2771,0.2802,0.2809,0.2816,0.2823,0.2833,0.284,0.2761,0.2762,0.2762,0,0.3062,0.3069,0.3111,0.312,0.312,0.3154,0.3145,0.3146,0.3117,0.3094,0.3101,0.2983,0.2928,0.2851,0.2861,0.282,0.2815,0.2787,0.282,0.2826,0.2831,0.284,0.2846,0.2766,0.2766,0.2765,0.2765,0,0.3041,0.3049,0.305,0.3077,0.309,0.3085,0.3113,0.3112,0.3113,0.3104,0.3061,0.3018,0.2944,0.2931,0.2893,0.2885,0.2868,0.2843,0.2813,0.2846,0.2852,0.2857,0.2773,0.2771,0.277,0.2768,0,0,0.2962,0.3026,0.3017,0.3017,0.3062,0.3055,0.3065,0.3059,0.3043,0.3053,0.3025,0.298,0.2986,0.2936,0.2903,0.2922,0.298,0.2904,0.2903,0.2933,0.2999,0.2936,0.2936,0.2962,0.2963,0.2964,0.2994,0,0.2915,0.2923,0.2964,0.2941,0.2942,0.2982,0.2979,0.2986,0.2997,0.2989,0.2993,0.296,0.2976,0.2954,0.2982,0.2971,0.2995,0.2975,0.2945,0.2944,0.29,0.2939,0.2811,0.2822,0.2999,0.3,0.3,0,0.2847,0.2866,0.2854,0.2865,0.2866,0.2865,0.2856,0.2864,0.2887,0.2898,0.2911,0.2921,0.2947,0.2969,0.3007,0.2992,0.3009,0.3022,0.3022,0.2932,0.289,0.2811,0.2824,0.2746,0.3008,0.3007,0.3007,0,0.2739,0.2759,0.2743,0.275,0.2792,0.2778,0.2795,0.2821,0.2826,0.2856,0.2875,0.2896,0.2922,0.2959,0.3013,0.3008,0.3067,0.3048,0.3008,0.3004,0.2871,0.2853,0.2817,0.3085,0.3085,0.3085,0.3085,0,0.2651,0.2625,0.2691,0.2681,0.2647,0.2702,0.2677,0.2702,0.2748,0.2758,0.283,0.2855,0.293,0.2975,0.3011,0.3031,0.3063,0.3027,0.3009,0.2899,0.2884,0.2788,0.2757,0.3086,0.3086,0.3086,0.3086,0,0.2536,0.2579,0.2558,0.2596,0.2601,0.2581,0.2631,0.2622,0.2687,0.2715,0.2735,0.2833,0.2897,0.296,0.3019,0.3019,0.2948,0.3036,0.2908,0.2875,0.2742,0.2721,0.2573,0.2503,0.2988,0.2987,0.2986,0,0.2487,0.247,0.2493,0.2487,0.2506,0.2505,0.2509,0.2576,0.2595,0.2698,0.2709,0.2796,0.2845,0.2917,0.2931,0.2961,0.2891,0.2842,0.2807,0.2725,0.2689,0.2599,0.2546,0.2677,0.2674,0.2671,0.2669,0,0.2398,0.2405,0.2406,0.2403,0.2399,0.2402,0.2429,0.2438,0.2524,0.2563,0.2635,0.2688,0.2777,0.2751,0.279,0.2796,0.2682,0.2782,0.2723,0.2467,0.2338,0.2265,0.2681,0.2642,0.2645,0.2647,0.2648,0.2649,0.233,0.2312,0.2322,0.2302,0.2304,0.2302,0.2279,0.2329,0.2351,0.2398,0.2512,0.2549,0.258,0.2622,0.2601,0.2487,0.2516,0.2404,0.2396,0.2322,0.2207,0.2571,0.2493,0.2495,0.2496,0.2497,0.2498,0,0.2241,0.2237,0.2225,0.22,0.2169,0.2206,0.2216,0.2188,0.2183,0.2262,0.2311,0.2326,0.2288,0.2301,0.2229,0.2121,0.2041,0.205,0.1899,0.1878,0.2223,0.2161,0.1973,0.1973,0.1974,0.1974,0.1974,0.1974,0.2194,0.2153,0.2146,0.2071,0.2054,0.1998,0.1986,0.1967,0.2001,0.1981,0.1982,0.2024,0.2081,0.2011,0.188,0.1833,0.17,0.159,0.1624,0.1878,0.191,0.1941,0.1877,0.1632,0.1632,0.119,0.1187,0.1184]},{"header":{"parameterUnit":"m.s-1","parameterCategory":2,"la1":30.2991,"la2":30.254,"lo1":-89.0895,"lo2":-89.0444,"dy":0.0017,"dx":0.0017,"nx":28,"ny":28,"refTime":"2024-04-12T09:00:00:Z","depth":"0","parameterNumber":3,"parameterNumberName":"V-component_of_CURRENTS"},"data":[0,0,0,0,0,0,0,0,0,0,0,0,0,0,0,0,0,0,0,0,0,0,0,0,0,0,0,0,0,0,0,0,0,0,0,0,0,0,0,0,0,0,0,0,0,0,0,0,0,0,0,0,0,0,0,0,0,0,-0.0174,-0.0174,0,-0.0173,-0.0173,-0.0173,-0.018,-0.0181,-0.0181,-0.0181,-0.0157,-0.0156,-0.0155,0,0,0,0,0,0,0,0,0,0,0,0,0,-0.0163,-0.0163,-0.0174,-0.0174,-0.0174,-0.0173,-0.0173,-0.0173,-0.018,-0.0181,-0.0181,-0.0181,-0.0157,-0.0156,-0.0155,0,0,0,0,0,0,0,0,0,0,0,0,0,-0.0164,-0.0163,-0.0174,-0.0179,-0.0179,-0.0173,-0.0173,-0.0173,-0.018,-0.0181,-0.0181,-0.0182,-0.0157,-0.0156,-0.0155,-0.0136,0,0,-0.015,-0.015,0,0,0,0,0,0,0,0,-0.0164,-0.0164,-0.0178,-0.0178,-0.0179,-0.0178,-0.016,-0.016,-0.018,-0.0178,-0.0181,-0.0182,-0.0162,-0.016,-0.0158,-0.0135,-0.0134,-0.015,-0.0149,-0.0149,-0.0148,0,0,0,0,0,0,0,-0.0164,-0.0164,-0.0172,-0.0178,-0.0178,-0.0174,-0.0175,-0.016,-0.0166,-0.0178,-0.0179,-0.0181,-0.0162,-0.0159,-0.0157,-0.0133,-0.015,-0.0149,-0.0148,-0.0147,-0.01,-0.0099,0,0,0,0,0,0,-0.0167,-0.0164,-0.0172,-0.0172,-0.0174,-0.0174,-0.0175,-0.0177,-0.0167,-0.0166,-0.0181,-0.0182,-0.0161,-0.0159,-0.0156,-0.0119,-0.0149,-0.0147,-0.0146,-0.01,-0.01,-0.0099,0,0,0,0,0,0,-0.0167,-0.0168,-0.0172,-0.0169,-0.017,-0.0174,-0.0176,-0.0177,-0.0176,-0.0169,-0.0168,-0.018,-0.0162,-0.0158,-0.0135,-0.0118,-0.0147,-0.0145,-0.0101,-0.01,-0.0099,-0.0053,0,0,0,0,0,0,-0.0167,-0.0168,-0.0166,-0.0169,-0.017,-0.0162,-0.0176,-0.0176,-0.0177,-0.0178,-0.0167,-0.0166,-0.0162,-0.0138,-0.0134,-0.0117,-0.0144,-0.0101,-0.01,-0.01,-0.0055,-0.0051,-0.0047,0,0,0,0,0,-0.0166,-0.0156,-0.0166,-0.0167,-0.0169,-0.0162,-0.0161,-0.0165,-0.0176,-0.0168,-0.0161,-0.0166,-0.0131,-0.0135,-0.0132,-0.0114,-0.0102,-0.0101,-0.01,-0.0056,-0.0051,-0.0047,0,0,0,0,0,0,-0.0143,-0.0156,-0.0167,-0.016,-0.0162,-0.0164,-0.0154,-0.0164,-0.0153,-0.0153,-0.0153,-0.0149,-0.0126,-0.0128,-0.0133,-0.0101,-0.012,-0.0119,-0.0089,-0.0084,-0.008,-0.006,-0.0143,0,0,0,0,0,-0.0141,-0.0137,-0.015,-0.0141,-0.0143,-0.0151,-0.0149,-0.0155,-0.0149,-0.0146,-0.0139,-0.0132,-0.0118,-0.0108,-0.0098,-0.0073,-0.0082,-0.0063,-0.0059,-0.0056,-0.0039,-0.0039,-0.0034,-0.0096,-0.0096,-0.0096,0,0,-0.013,-0.0134,-0.0134,-0.0137,-0.0137,-0.0122,-0.015,-0.0143,-0.0124,-0.0143,-0.0109,-0.0115,-0.011,-0.0083,-0.0073,-0.0081,-0.0046,-0.0055,-0.0052,-0.0036,-0.0038,-0.0032,-0.0026,-0.0096,-0.0096,-0.0096,0,0,-0.0096,-0.0111,-0.0096,-0.0094,-0.0097,-0.0099,-0.0098,-0.0102,-0.0097,-0.0075,-0.0084,-0.0076,-0.0057,-0.0046,-0.0039,-0.0007,-0.0027,-0.0015,0.0028,0.0026,0.0032,0.0037,0.0021,0.0024,-0.0011,-0.0011,-0.0011,0,-0.0082,-0.0065,-0.0088,-0.0069,-0.0057,-0.0087,-0.0059,-0.0057,-0.005,-0.0036,-0.0057,-0.003,-0.0034,0.0007,0.0013,0.0005,-0.0008,0.0011,0.0033,0.0037,0.0041,0.0024,0.0027,-0.0009,-0.0009,-0.0009,-0.0009,0,-0.0036,-0.0022,-0.0009,0.0005,0.0013,0.0032,0.0027,0.0038,0.0031,0.0032,0.0058,0.0048,0.0066,0.0056,0.0047,0.0076,0.0052,0.0036,0.0024,0.0051,0.003,0.0032,-0.0005,-0.0006,-0.0007,-0.0007,0,0,0.001,0.0019,0.0028,0.0047,0.0054,0.0071,0.0101,0.0125,0.0152,0.0141,0.018,0.018,0.0159,0.0164,0.0143,0.0138,0.0142,0.0101,0.01,0.0092,0.0128,0.0099,0.0098,0.0127,0.0128,0.0128,0.0098,0,0.0059,0.0107,0.0101,0.0157,0.0183,0.0172,0.0208,0.0222,0.0225,0.0252,0.0232,0.0255,0.0205,0.021,0.0198,0.0161,0.0152,0.0152,0.0099,0.0098,0.0074,0.0102,0.0129,0.0103,0.01,0.01,0.01,0,0.0118,0.0143,0.0199,0.0238,0.0249,0.0277,0.0327,0.0355,0.0374,0.0374,0.0378,0.0355,0.0355,0.0301,0.0257,0.0256,0.0202,0.0162,0.016,0.0124,0.0074,0.0078,0.0107,0.0032,0.0103,0.0103,0.0103,0,0.0175,0.022,0.0268,0.0281,0.0315,0.0344,0.0367,0.0395,0.0433,0.0452,0.0474,0.0454,0.0452,0.0389,0.0292,0.0279,0.023,0.0202,0.0126,0.0122,0.0133,0.0129,0.0093,0.0177,0.0177,0.0177,0.0177,0,0.0236,0.0278,0.0296,0.0325,0.0395,0.0399,0.0472,0.0488,0.0525,0.0584,0.0541,0.0574,0.0474,0.0426,0.0329,0.0233,0.0257,0.0146,0.0121,0.0146,0.0144,0.0068,0.0016,0.0176,0.0176,0.0176,0.0176,0,0.0287,0.0299,0.0359,0.0401,0.0422,0.0472,0.0535,0.0585,0.0608,0.0682,0.0694,0.0671,0.0613,0.0495,0.039,0.0289,0.015,0.0149,0.0174,0.0153,0.0015,-0.0035,-0.0093,-0.0127,0.0075,0.0075,0.0074,0,0.0313,0.0349,0.0413,0.0452,0.0471,0.0539,0.059,0.0628,0.0684,0.0747,0.079,0.0756,0.0752,0.0573,0.0393,0.0226,0.0137,0.0122,0.0108,0.0024,-0.005,-0.0081,-0.0106,0.0133,0.0133,0.0133,0.0133,0,0.0364,0.0385,0.0428,0.0506,0.0565,0.064,0.0712,0.077,0.0829,0.0895,0.0961,0.0964,0.0802,0.0657,0.0411,0.0283,0.0081,0.0114,0.0035,0.0005,-0.0035,-0.0085,0.0119,0.0132,0.0132,0.0132,0.0132,0.0132,0.0397,0.0434,0.0487,0.0563,0.0635,0.0728,0.0795,0.0882,0.099,0.1095,0.1086,0.1126,0.09,0.0584,0.0394,0.0081,0.0075,-0.0003,-0.0055,-0.0077,-0.0109,0.0082,0.0058,0.0058,0.0058,0.0058,0.0057,0,0.043,0.0469,0.0538,0.0628,0.0707,0.0741,0.0868,0.0948,0.1082,0.1189,0.1253,0.1186,0.0917,0.0615,0.0194,-0.0033,-0.0107,-0.016,-0.0183,-0.02,-0.0015,-0.0013,-0.006,-0.006,-0.006,-0.006,-0.006,-0.006,0.0448,0.0507,0.054,0.0667,0.0732,0.0844,0.0918,0.1052,0.1162,0.1306,0.1354,0.1357,0.1139,0.0427,-0.0055,-0.0182,-0.0317,-0.036,-0.0439,-0.0304,-0.0292,-0.0282,-0.029,-0.0395,-0.0395,-0.0572,-0.0574,-0.0576]}],[{"header":{"parameterUnit":"m.s-1","parameterCategory":2,"la1":30.2991,"la2":30.254,"lo1":-89.0895,"lo2":-89.0444,"dy":0.0017,"dx":0.0017,"nx":28,"ny":28,"refTime":"2024-04-12T09:00:00:Z","depth":"2","parameterNumber":2,"parameterNumberName":"U-component_of_CURRENTS"},"data":[0,0,0,0,0,0,0,0,0,0,0,0,0,0,0,0,0,0,0,0,0,0,0,0,0,0,0,0,0,0,0,0,0,0,0,0,0,0,0,0,0,0,0,0,0,0,0,0,0,0,0,0,0,0,0,0,0,0,0.2193,0.2193,0,0.22,0.22,0.2199,0.2208,0.2209,0.2209,0.221,0.2176,0.2175,0.2174,0,0,0,0,0,0,0,0,0,0,0,0,0,0.2195,0.2195,0.2193,0.2193,0.2193,0.22,0.22,0.2199,0.2208,0.2209,0.2209,0.221,0.2177,0.2175,0.2174,0,0,0,0,0,0,0,0,0,0,0,0,0,0.2194,0.2194,0.2193,0.2201,0.2202,0.22,0.22,0.2199,0.2208,0.2209,0.221,0.221,0.2177,0.2175,0.2173,0.2148,0,0,0.2167,0.2167,0,0,0,0,0,0,0,0,0.2194,0.2193,0.22,0.2201,0.2202,0.2207,0.2189,0.2181,0.2208,0.2202,0.221,0.221,0.2185,0.2182,0.2178,0.2146,0.2145,0.2167,0.2166,0.2165,0.2165,0,0,0,0,0,0,0,0.2194,0.2193,0.2192,0.22,0.2201,0.2208,0.2208,0.2187,0.2186,0.2203,0.2204,0.221,0.2185,0.2179,0.2177,0.2144,0.2167,0.2166,0.2164,0.2164,0.2149,0.215,0,0,0,0,0,0,0.2199,0.2193,0.2192,0.2193,0.2203,0.2207,0.2207,0.2202,0.2187,0.2187,0.221,0.2211,0.2182,0.2179,0.2176,0.22,0.2165,0.2163,0.2162,0.2149,0.215,0.215,0,0,0,0,0,0,0.2198,0.2198,0.2192,0.2197,0.2197,0.2207,0.22,0.2202,0.2204,0.2194,0.2192,0.2212,0.2183,0.2178,0.2176,0.2197,0.2163,0.2161,0.2148,0.2149,0.215,0.2213,0,0,0,0,0,0,0.2198,0.2197,0.22,0.2196,0.2197,0.2198,0.22,0.2201,0.2208,0.2209,0.2195,0.2192,0.2183,0.218,0.2174,0.2193,0.2159,0.2147,0.2148,0.215,0.221,0.2216,0.2221,0,0,0,0,0,0.2198,0.2197,0.2199,0.22,0.2197,0.2199,0.2199,0.2207,0.2207,0.221,0.2209,0.2193,0.2186,0.2178,0.2172,0.2191,0.2146,0.2148,0.215,0.2207,0.2215,0.2221,0,0,0,0,0,0,0.219,0.2198,0.2201,0.2199,0.2204,0.2202,0.2208,0.2208,0.2207,0.2216,0.2197,0.2194,0.2206,0.2184,0.2176,0.2192,0.2165,0.2166,0.2211,0.2218,0.2224,0.2234,0.2158,0,0,0,0,0,0.2192,0.2198,0.2201,0.22,0.2205,0.2205,0.2209,0.2218,0.2217,0.2218,0.2214,0.2209,0.2205,0.2201,0.2197,0.2193,0.2187,0.2203,0.2209,0.2214,0.222,0.2235,0.2244,0.2156,0.2156,0.2156,0,0,0.2187,0.2195,0.2196,0.2201,0.2205,0.221,0.2208,0.2222,0.2234,0.2213,0.2231,0.2231,0.221,0.2223,0.2225,0.2208,0.2236,0.2217,0.2221,0.2224,0.2238,0.2247,0.2254,0.2158,0.2157,0.2157,0,0,0.218,0.2189,0.2192,0.2202,0.2221,0.2224,0.2228,0.224,0.2255,0.2268,0.2266,0.2281,0.2264,0.2269,0.2261,0.2291,0.2271,0.2287,0.2319,0.2335,0.2342,0.2349,0.2353,0.2359,0.2284,0.2284,0.2284,0,0.2178,0.2176,0.2192,0.2202,0.2213,0.2228,0.2234,0.2249,0.2264,0.2277,0.2284,0.2295,0.2288,0.2296,0.232,0.2306,0.2306,0.2295,0.2343,0.235,0.2355,0.2358,0.2364,0.2288,0.2287,0.2287,0.2287,0,0.2172,0.2177,0.2182,0.2199,0.2214,0.2225,0.2252,0.2276,0.2297,0.2311,0.2343,0.2351,0.2353,0.2361,0.235,0.2385,0.237,0.2355,0.2328,0.2368,0.2368,0.2374,0.2292,0.2291,0.229,0.2289,0,0,0.2138,0.217,0.2171,0.2177,0.2218,0.2221,0.2261,0.2284,0.2301,0.2344,0.2366,0.2393,0.2409,0.2403,0.2402,0.2425,0.2475,0.2413,0.2413,0.2422,0.2506,0.2443,0.2442,0.2471,0.2472,0.2473,0.2491,0,0.2122,0.2136,0.2162,0.217,0.2175,0.2217,0.2243,0.228,0.2316,0.2349,0.2385,0.2408,0.2418,0.243,0.2459,0.2472,0.2492,0.2471,0.2462,0.2462,0.2404,0.2447,0.2246,0.224,0.2496,0.2497,0.2498,0,0.2096,0.2113,0.2123,0.2151,0.2158,0.2173,0.2218,0.2248,0.2309,0.2343,0.239,0.2415,0.2467,0.2468,0.252,0.2507,0.2515,0.2526,0.2526,0.2448,0.2408,0.224,0.224,0.2506,0.2506,0.2505,0.2504,0,0.2049,0.2076,0.2082,0.2095,0.2137,0.2155,0.2184,0.2245,0.2278,0.2347,0.2383,0.2434,0.2473,0.2502,0.2541,0.2533,0.2592,0.2572,0.2519,0.2514,0.233,0.2306,0.2604,0.2604,0.2604,0.2604,0.2604,0,0.2011,0.2011,0.2059,0.2062,0.2072,0.2124,0.215,0.2191,0.2264,0.23,0.2377,0.2416,0.249,0.2532,0.255,0.2556,0.2595,0.2534,0.2519,0.2345,0.2324,0.2541,0.2533,0.2605,0.2604,0.2604,0.2604,0,0.1951,0.1982,0.1986,0.2033,0.2047,0.2059,0.2128,0.2149,0.2232,0.2288,0.2316,0.2418,0.2476,0.2529,0.2578,0.256,0.257,0.2556,0.2347,0.2307,0.2477,0.2473,0.2495,0.2493,0.2491,0.249,0.2489,0,0.192,0.1918,0.1957,0.1962,0.1983,0.2017,0.2038,0.2121,0.2156,0.2278,0.2297,0.239,0.2427,0.2483,0.2474,0.2478,0.2539,0.228,0.2228,0.2486,0.2469,0.2467,0.2465,0.2008,0.2003,0.1999,0.1996,0,0.1864,0.1881,0.189,0.1907,0.1923,0.194,0.1987,0.2008,0.2109,0.2156,0.2224,0.2268,0.2339,0.2252,0.2269,0.2249,0.2263,0.2196,0.2517,0.2072,0.2029,0.2012,0.2025,0.1959,0.1963,0.1965,0.1967,0.1969,0.1823,0.1815,0.1833,0.1835,0.1853,0.1857,0.1842,0.1896,0.1926,0.1974,0.2081,0.2074,0.2096,0.2023,0.1959,0.1918,0.2083,0.1973,0.1984,0.2,0.1946,0.1903,0.1798,0.1801,0.1803,0.1805,0.1807,0,0.1759,0.1759,0.1761,0.1751,0.1729,0.1775,0.1789,0.1754,0.174,0.1812,0.1843,0.1697,0.1636,0.1665,0.1543,0.1542,0.1525,0.1473,0.142,0.1459,0.1492,0.141,0.1121,0.1119,0.1117,0.1115,0,0,0.1727,0.1695,0.1688,0.1625,0.1622,0.1566,0.1552,0.1516,0.1529,0.149,0.147,0.1588,0.1626,0.1355,0.1315,0.119,0.132,0.1149,0.1702,0.168,0.171,0.1787,0.1705,0,0,0,0,0]},{"header":{"parameterUnit":"m.s-1","parameterCategory":2,"la1":30.2991,"la2":30.254,"lo1":-89.0895,"lo2":-89.0444,"dy":0.0017,"dx":0.0017,"nx":28,"ny":28,"refTime":"2024-04-12T09:00:00:Z","depth":"2","parameterNumber":3,"parameterNumberName":"V-component_of_CURRENTS"},"data":[0,0,0,0,0,0,0,0,0,0,0,0,0,0,0,0,0,0,0,0,0,0,0,0,0,0,0,0,0,0,0,0,0,0,0,0,0,0,0,0,0,0,0,0,0,0,0,0,0,0,0,0,0,0,0,0,0,0,0.0211,0.0211,0,0.0205,0.0205,0.0204,0.0195,0.0195,0.0195,0.0195,0.0163,0.0162,0.0161,0,0,0,0,0,0,0,0,0,0,0,0,0,0.018,0.0181,0.0211,0.0211,0.0211,0.0205,0.0205,0.0204,0.0195,0.0195,0.0195,0.0195,0.0163,0.0162,0.0161,0,0,0,0,0,0,0,0,0,0,0,0,0,0.0185,0.0181,0.0211,0.0206,0.0206,0.0205,0.0205,0.0204,0.0195,0.0195,0.0195,0.0195,0.0163,0.0162,0.0161,0.0155,0,0,0.0157,0.0157,0,0,0,0,0,0,0,0,0.0184,0.0186,0.0207,0.0207,0.0206,0.0202,0.0182,0.0187,0.0195,0.0198,0.0195,0.0195,0.0174,0.0172,0.017,0.0153,0.0152,0.0157,0.0156,0.0156,0.0156,0,0,0,0,0,0,0,0.0184,0.0186,0.0207,0.0207,0.0207,0.0193,0.0194,0.0183,0.0185,0.0198,0.0197,0.0199,0.0174,0.0171,0.0169,0.0151,0.0157,0.0156,0.0155,0.0155,0.012,0.012,0,0,0,0,0,0,0.019,0.0186,0.0207,0.0207,0.0196,0.0194,0.0195,0.0202,0.0186,0.0184,0.0199,0.0198,0.0173,0.017,0.0168,0.0164,0.0156,0.0155,0.0154,0.012,0.012,0.012,0,0,0,0,0,0,0.0189,0.0192,0.0207,0.0197,0.0198,0.0195,0.0203,0.0202,0.02,0.0187,0.0184,0.0198,0.0173,0.0169,0.016,0.0162,0.0154,0.0153,0.0121,0.012,0.012,0.0153,0,0,0,0,0,0,0.0188,0.0192,0.0198,0.0197,0.0199,0.0211,0.0203,0.0202,0.0202,0.0201,0.0186,0.0183,0.0173,0.0162,0.0159,0.016,0.0152,0.0121,0.012,0.012,0.0152,0.0153,0.0155,0,0,0,0,0,0.0187,0.02,0.0198,0.0201,0.0208,0.0211,0.0211,0.0207,0.0202,0.0204,0.0193,0.0183,0.0157,0.0161,0.0158,0.0158,0.0121,0.0121,0.012,0.0151,0.0153,0.0155,0,0,0,0,0,0,0.0191,0.02,0.0198,0.0213,0.0213,0.021,0.0214,0.0208,0.0201,0.02,0.0184,0.018,0.0171,0.0159,0.0163,0.0146,0.0136,0.0135,0.0161,0.0163,0.0164,0.0183,0.0151,0,0,0,0,0,0.0195,0.0207,0.0208,0.022,0.0221,0.0216,0.0217,0.0214,0.0208,0.0205,0.0193,0.0178,0.0166,0.016,0.0147,0.014,0.013,0.0136,0.0138,0.0139,0.0151,0.0137,0.0139,0.0118,0.0119,0.0119,0,0,0.02,0.0207,0.0214,0.0221,0.0221,0.0232,0.0216,0.0221,0.0227,0.0202,0.0203,0.0184,0.0165,0.0157,0.0152,0.0148,0.0137,0.0139,0.0141,0.0151,0.0137,0.0139,0.0141,0.0118,0.0118,0.0118,0,0,0.0221,0.0223,0.0239,0.0241,0.0244,0.0242,0.0244,0.024,0.0235,0.0232,0.0214,0.02,0.018,0.017,0.0162,0.0163,0.0145,0.0151,0.0178,0.0164,0.0166,0.0167,0.0149,0.0149,0.0154,0.0154,0.0154,0,0.0227,0.0249,0.0243,0.0258,0.0266,0.025,0.0268,0.0261,0.0253,0.0251,0.0237,0.021,0.019,0.0186,0.0184,0.0169,0.0155,0.0174,0.0167,0.0169,0.017,0.0151,0.0151,0.0156,0.0155,0.0155,0.0155,0,0.0259,0.0275,0.0285,0.0301,0.0305,0.0317,0.031,0.0308,0.0296,0.0288,0.0275,0.0247,0.0234,0.0217,0.0202,0.0198,0.0183,0.0171,0.0167,0.0174,0.0153,0.0152,0.0158,0.0157,0.0157,0.0156,0,0,0.0284,0.0304,0.0308,0.0324,0.033,0.034,0.0346,0.0351,0.036,0.0334,0.0343,0.0307,0.0288,0.0277,0.0249,0.0233,0.022,0.0208,0.0206,0.0198,0.0186,0.017,0.0166,0.0206,0.0206,0.0206,0.0166,0,0.0313,0.0351,0.0351,0.0387,0.0408,0.0397,0.0409,0.0406,0.0395,0.0396,0.0359,0.0355,0.0312,0.0307,0.0283,0.024,0.022,0.0232,0.0174,0.0172,0.0163,0.0166,0.0185,0.0151,0.0165,0.0165,0.0165,0,0.0347,0.0369,0.041,0.0438,0.0446,0.0461,0.0479,0.0489,0.048,0.047,0.0453,0.0424,0.0398,0.036,0.0293,0.0302,0.025,0.021,0.0208,0.0184,0.0154,0.0146,0.0148,0.0162,0.0163,0.0163,0.0163,0,0.0375,0.0411,0.0447,0.0457,0.0483,0.0496,0.0509,0.0511,0.0531,0.0522,0.0534,0.0486,0.0476,0.0405,0.0316,0.0307,0.024,0.0217,0.0152,0.015,0.0152,0.015,0.0173,0.0173,0.0173,0.0173,0.0173,0,0.0409,0.0437,0.0463,0.0483,0.053,0.0532,0.0576,0.0578,0.0594,0.0631,0.0579,0.0594,0.0488,0.0433,0.0341,0.0245,0.0257,0.0162,0.0142,0.0162,0.0161,0.0161,0.0161,0.0172,0.0172,0.0172,0.0173,0,0.0435,0.0451,0.0497,0.053,0.0547,0.058,0.063,0.0661,0.0668,0.0716,0.072,0.0679,0.0611,0.0495,0.0381,0.0288,0.0191,0.0152,0.0179,0.0163,0.0103,0.0104,0.008,0.0079,0.0079,0.0078,0.0078,0,0.045,0.0478,0.0534,0.0566,0.0583,0.0634,0.0674,0.0698,0.0739,0.0773,0.0803,0.0752,0.073,0.0549,0.0381,0.022,0.0192,0.0121,0.0107,0.0112,0.0095,0.0097,0.0099,0.0118,0.0118,0.0117,0.0117,0,0.0482,0.0501,0.0538,0.0606,0.0655,0.072,0.0777,0.0824,0.0864,0.0906,0.0943,0.0928,0.0763,0.0607,0.0379,0.0266,0.0147,0.0114,0.0119,0.0138,0.0145,0.0128,0.013,0.0116,0.0117,0.0117,0.0117,0.0117,0.0503,0.0534,0.0584,0.0649,0.0711,0.0795,0.0855,0.0921,0.1003,0.1065,0.1044,0.102,0.0836,0.0551,0.0354,0.0142,0.0155,0.0075,0.0077,0.0078,0.009,0.0095,0.0059,0.0059,0.0059,0.0058,0.0058,0,0.0528,0.0565,0.0624,0.0704,0.0775,0.0808,0.0919,0.0983,0.1085,0.1126,0.1153,0.0976,0.08,0.0581,0.0279,0.0098,0.0083,0.0029,0.0057,0.006,0.0062,0.0073,0.0037,0.0037,0.0036,0.0035,0,0,0.0543,0.0596,0.0627,0.0741,0.0802,0.0909,0.0978,0.1076,0.1134,0.1179,0.1158,0.1115,0.0862,0.0634,0.0392,0.0217,0.0176,0.0175,0.0214,0.028,0.0284,0.0112,0.0136,0,0,0,0,0]}],[{"header":{"parameterUnit":"m.s-1","parameterCategory":2,"la1":30.2991,"la2":30.254,"lo1":-89.0895,"lo2":-89.0444,"dy":0.0017,"dx":0.0017,"nx":28,"ny":28,"refTime":"2024-04-12T09:00:00:Z","depth":"4","parameterNumber":2,"parameterNumberName":"U-component_of_CURRENTS"},"data":[0,0,0,0,0,0,0,0,0,0,0,0,0,0,0,0,0,0,0,0,0,0,0,0,0,0,0,0,0,0,0,0,0,0,0,0,0,0,0,0,0,0,0,0,0,0,0,0,0,0,0,0,0,0,0,0,0,0,0.1186,0.1186,0,0.1212,0.1212,0.1213,0.1255,0.1256,0.1256,0.1257,0.1363,0.1365,0.1367,0,0,0,0,0,0,0,0,0,0,0,0,0,0.1166,0.1167,0.1186,0.1186,0.1186,0.1212,0.1212,0.1213,0.1255,0.1256,0.1257,0.1257,0.1362,0.1364,0.1367,0,0,0,0,0,0,0,0,0,0,0,0,0,0.1182,0.1167,0.1186,0.121,0.1213,0.1212,0.1212,0.1213,0.1254,0.1256,0.1257,0.1258,0.1361,0.1364,0.1367,0.1364,0,0,0.1377,0.1378,0,0,0,0,0,0,0,0,0.1181,0.1183,0.1206,0.1209,0.1211,0.1231,0.1244,0.1267,0.1254,0.1239,0.1257,0.1258,0.1325,0.1331,0.1333,0.1369,0.1373,0.1377,0.1379,0.138,0.1381,0,0,0,0,0,0,0,0.118,0.1182,0.1196,0.1207,0.121,0.1218,0.1222,0.1248,0.1277,0.124,0.1243,0.1246,0.1327,0.1329,0.1336,0.1375,0.1377,0.138,0.1382,0.1383,0.1498,0.15,0,0,0,0,0,0,0.1175,0.1181,0.1195,0.1197,0.1199,0.1218,0.1222,0.1224,0.1275,0.1283,0.1245,0.1248,0.1323,0.1332,0.134,0.1423,0.138,0.1383,0.1385,0.1497,0.1499,0.15,0,0,0,0,0,0,0.1175,0.1176,0.1194,0.1189,0.1192,0.1217,0.1219,0.1224,0.1255,0.1277,0.1287,0.1274,0.1325,0.1335,0.1388,0.1424,0.1385,0.1388,0.1496,0.1498,0.1499,0.1535,0,0,0,0,0,0,0.1174,0.1176,0.1189,0.1189,0.1192,0.1212,0.1218,0.1223,0.1252,0.1257,0.1305,0.1314,0.1326,0.1383,0.1391,0.1428,0.139,0.1494,0.1497,0.1499,0.1533,0.1538,0.1543,0,0,0,0,0,0.1173,0.1179,0.1189,0.1192,0.1205,0.1213,0.1216,0.1237,0.1253,0.1269,0.1304,0.1314,0.1403,0.1386,0.1395,0.1434,0.1493,0.1496,0.1499,0.1531,0.1537,0.1543,0,0,0,0,0,0,0.1179,0.1184,0.1195,0.1204,0.1218,0.1221,0.1239,0.1251,0.1288,0.1307,0.1328,0.1339,0.14,0.1409,0.139,0.1473,0.1451,0.1455,0.1472,0.1479,0.1484,0.149,0.1393,0,0,0,0,0,0.1185,0.1194,0.12,0.1213,0.1222,0.1237,0.1248,0.1264,0.1287,0.1306,0.1337,0.1374,0.1412,0.1439,0.1469,0.1513,0.1514,0.1544,0.1549,0.1553,0.1564,0.1588,0.1596,0.1509,0.1509,0.1509,0,0,0.119,0.1196,0.1202,0.1216,0.1231,0.1244,0.1248,0.1275,0.1299,0.1312,0.1368,0.1397,0.1427,0.1478,0.1507,0.1495,0.1577,0.1556,0.156,0.1569,0.1591,0.16,0.1607,0.151,0.151,0.151,0,0,0.1196,0.1214,0.1222,0.1235,0.1261,0.127,0.1284,0.1305,0.1334,0.1378,0.1401,0.145,0.15,0.153,0.1551,0.1601,0.1603,0.1616,0.1651,0.1673,0.1681,0.1687,0.1692,0.1698,0.1619,0.1619,0.1619,0,0.1207,0.1215,0.1228,0.124,0.1256,0.1284,0.1302,0.1329,0.1368,0.1399,0.1407,0.1497,0.1525,0.1589,0.1611,0.1615,0.1621,0.1624,0.168,0.1686,0.1692,0.1695,0.1702,0.1621,0.162,0.162,0.162,0,0.1208,0.1228,0.1237,0.1263,0.1283,0.1305,0.1337,0.1378,0.1417,0.1444,0.1523,0.1558,0.1613,0.1631,0.1641,0.1706,0.1693,0.1682,0.1662,0.1703,0.1704,0.171,0.1624,0.1623,0.1622,0.1622,0,0,0.12,0.1232,0.124,0.1258,0.13,0.1314,0.1368,0.142,0.1466,0.1519,0.1577,0.1647,0.1676,0.1701,0.1724,0.1749,0.1795,0.1742,0.1742,0.1743,0.1838,0.1716,0.171,0.1796,0.1797,0.1799,0.1818,0,0.1204,0.1227,0.1246,0.1283,0.1298,0.1345,0.1391,0.1448,0.1504,0.1567,0.1626,0.1692,0.17,0.1739,0.1768,0.1797,0.1816,0.1791,0.1802,0.1802,0.1686,0.1715,0.1804,0.1823,0.1824,0.1825,0.1826,0,0.1196,0.1216,0.1248,0.1298,0.1312,0.1346,0.1431,0.1475,0.157,0.1618,0.1693,0.1736,0.1812,0.1799,0.1864,0.1849,0.1853,0.1859,0.1859,0.1738,0.1692,0.1776,0.1837,0.1836,0.1836,0.1835,0.1834,0,0.1171,0.1216,0.1246,0.1261,0.1322,0.1364,0.1412,0.1502,0.1555,0.1661,0.1712,0.1792,0.1847,0.1872,0.1901,0.189,0.1947,0.1926,0.1814,0.1805,0.1893,0.1886,0.1958,0.1958,0.1958,0.1958,0.1958,0,0.1149,0.1176,0.1243,0.1255,0.1309,0.1362,0.1437,0.1497,0.1596,0.1654,0.1743,0.1792,0.1872,0.1913,0.1917,0.1884,0.196,0.1825,0.1805,0.1906,0.1901,0.1897,0.189,0.1958,0.1958,0.1958,0.1958,0,0.1107,0.1149,0.1186,0.1264,0.1294,0.1337,0.1442,0.1489,0.1595,0.1673,0.1713,0.1818,0.1863,0.1913,0.1953,0.1894,0.188,0.1846,0.1954,0.1939,0.1717,0.1712,0.1716,0.1712,0.1708,0.1705,0.1703,0,0.108,0.1097,0.1183,0.1211,0.1252,0.1326,0.1372,0.148,0.1525,0.1666,0.1687,0.1783,0.1834,0.1789,0.1849,0.1837,0.1815,0.1787,0.175,0.1714,0.1694,0.1694,0.1694,0.1697,0.1696,0.1695,0.1694,0,0.1033,0.108,0.1111,0.1169,0.1221,0.1267,0.1342,0.1367,0.1482,0.1592,0.1619,0.1642,0.1687,0.1706,0.1714,0.1703,0.1795,0.1751,0.1757,0.1722,0.1692,0.1676,0.1679,0.1682,0.1684,0.1685,0.1686,0,0.1008,0.1018,0.107,0.111,0.1168,0.1184,0.1235,0.1277,0.1333,0.148,0.1481,0.1575,0.1666,0.1637,0.1644,0.1626,0.1596,0.1529,0.1546,0.156,0.1501,0.1439,0.1337,0,0,0,0,0,0.0973,0.097,0.1003,0.1031,0.1083,0.1115,0.1199,0.1251,0.136,0.1337,0.1406,0.1435,0.1449,0.1497,0.1447,0.1577,0.1606,0.1511,0.1539,0.1616,0.163,0.1574,0,0,0,0,0,0,0.0947,0.0973,0.0973,0.0956,0.096,0.1001,0.1049,0.1124,0.1118,0.1236,0.1251,0.1336,0.1374,0.146,0.1415,0.1429,0.1413,0.157,0.1566,0.1608,0.162,0.1632,0.1579,0,0,0,0,0]},{"header":{"parameterUnit":"m.s-1","parameterCategory":2,"la1":30.2991,"la2":30.254,"lo1":-89.0895,"lo2":-89.0444,"dy":0.0017,"dx":0.0017,"nx":28,"ny":28,"refTime":"2024-04-12T09:00:00:Z","depth":"4","parameterNumber":3,"parameterNumberName":"V-component_of_CURRENTS"},"data":[0,0,0,0,0,0,0,0,0,0,0,0,0,0,0,0,0,0,0,0,0,0,0,0,0,0,0,0,0,0,0,0,0,0,0,0,0,0,0,0,0,0,0,0,0,0,0,0,0,0,0,0,0,0,0,0,0,0,0.0229,0.0229,0,0.0235,0.0235,0.0235,0.0245,0.0245,0.0246,0.0246,0.0224,0.0223,0.0223,0,0,0,0,0,0,0,0,0,0,0,0,0,0.0197,0.0198,0.0229,0.0229,0.0229,0.0235,0.0235,0.0235,0.0245,0.0245,0.0246,0.0246,0.0224,0.0223,0.0222,0,0,0,0,0,0,0,0,0,0,0,0,0,0.0207,0.0198,0.0229,0.0235,0.0236,0.0235,0.0235,0.0235,0.0245,0.0245,0.0246,0.0246,0.0225,0.0224,0.0222,0.0207,0,0,0.0219,0.0218,0,0,0,0,0,0,0,0,0.0207,0.0208,0.0234,0.0235,0.0236,0.0241,0.0216,0.0225,0.0245,0.0241,0.0246,0.0246,0.0227,0.0226,0.0225,0.0206,0.0205,0.0219,0.0218,0.0217,0.0217,0,0,0,0,0,0,0,0.0206,0.0208,0.023,0.0234,0.0235,0.0229,0.0231,0.0218,0.0231,0.0241,0.0242,0.0244,0.0227,0.0227,0.0225,0.0205,0.0219,0.0217,0.0217,0.0216,0.0175,0.0174,0,0,0,0,0,0,0.0208,0.0207,0.023,0.0231,0.0223,0.0229,0.0231,0.0238,0.0231,0.0231,0.0244,0.0244,0.0229,0.0226,0.0224,0.0213,0.0217,0.0216,0.0215,0.0175,0.0175,0.0174,0,0,0,0,0,0,0.0207,0.021,0.023,0.0219,0.0222,0.0229,0.0237,0.0238,0.0242,0.0234,0.0233,0.0248,0.0229,0.0226,0.0217,0.0212,0.0216,0.0214,0.0175,0.0175,0.0174,0.0187,0,0,0,0,0,0,0.0206,0.021,0.0217,0.022,0.0222,0.0232,0.0236,0.0238,0.0243,0.0244,0.0237,0.0235,0.0229,0.0219,0.0216,0.0211,0.0214,0.0176,0.0175,0.0175,0.0187,0.0187,0.0187,0,0,0,0,0,0.0205,0.0214,0.0217,0.022,0.0231,0.0232,0.0233,0.0239,0.0243,0.0244,0.024,0.0235,0.0212,0.0218,0.0214,0.0209,0.0176,0.0175,0.0175,0.0187,0.0187,0.0187,0,0,0,0,0,0,0.0205,0.0216,0.0219,0.0232,0.0233,0.0235,0.024,0.024,0.0238,0.0241,0.0232,0.023,0.0219,0.0211,0.0217,0.0194,0.0192,0.0191,0.0203,0.0203,0.0203,0.0214,0.0213,0,0,0,0,0,0.0207,0.0219,0.0222,0.0232,0.0234,0.0236,0.0239,0.0241,0.024,0.024,0.0234,0.0225,0.0211,0.0206,0.0194,0.0182,0.0173,0.0175,0.0175,0.0175,0.0181,0.0162,0.0161,0.0171,0.0171,0.0171,0,0,0.0211,0.0218,0.0225,0.0233,0.0236,0.0242,0.0239,0.0245,0.0248,0.0237,0.0239,0.0224,0.0208,0.0196,0.019,0.019,0.0166,0.0174,0.0174,0.0181,0.0161,0.016,0.0159,0.0171,0.0171,0.0171,0,0,0.0221,0.0229,0.0241,0.0243,0.0249,0.0249,0.0251,0.0253,0.0252,0.0248,0.0239,0.0225,0.0208,0.0195,0.0186,0.0177,0.0165,0.0169,0.018,0.016,0.0159,0.0158,0.0142,0.014,0.017,0.017,0.017,0,0.0225,0.0243,0.0243,0.0253,0.0259,0.0254,0.0265,0.0259,0.0257,0.0255,0.0251,0.0224,0.0208,0.0192,0.0188,0.0177,0.0166,0.0183,0.0161,0.016,0.0159,0.0142,0.014,0.017,0.017,0.017,0.017,0,0.0243,0.0257,0.0264,0.0277,0.028,0.0289,0.0283,0.0282,0.0278,0.0272,0.0256,0.0233,0.022,0.0205,0.0194,0.0176,0.017,0.0163,0.0164,0.0159,0.0141,0.0138,0.0171,0.0171,0.0171,0.0171,0,0,0.0254,0.0274,0.0278,0.0291,0.0296,0.0302,0.0302,0.0301,0.0306,0.0286,0.0288,0.0252,0.0241,0.023,0.0209,0.0187,0.0164,0.0174,0.0173,0.0164,0.0124,0.0121,0.0118,0.0154,0.0153,0.0153,0.0114,0,0.0271,0.0297,0.0301,0.0325,0.0338,0.0334,0.0338,0.0333,0.0323,0.0321,0.0287,0.0281,0.025,0.0247,0.0218,0.0183,0.0158,0.0176,0.0126,0.0125,0.0128,0.0114,0.0152,0.0111,0.0111,0.011,0.011,0,0.0289,0.0306,0.0334,0.0356,0.0362,0.0373,0.0383,0.0387,0.0373,0.0366,0.0346,0.0324,0.0292,0.0269,0.0201,0.0215,0.0172,0.0138,0.0136,0.013,0.0117,0.0117,0.0104,0.0105,0.0105,0.0105,0.0106,0,0.0302,0.033,0.0356,0.0364,0.0384,0.0395,0.0406,0.0402,0.0415,0.0401,0.041,0.036,0.0351,0.0285,0.0214,0.0209,0.014,0.0125,0.0079,0.0078,0.0088,0.0089,0.0074,0.0075,0.0075,0.0075,0.0075,0,0.0318,0.0339,0.0367,0.0382,0.0417,0.0421,0.0454,0.0453,0.0463,0.0486,0.0442,0.0445,0.0356,0.0305,0.0229,0.0148,0.015,0.0081,0.0067,0.0093,0.0095,0.0085,0.0087,0.0073,0.0074,0.0074,0.0074,0,0.0326,0.0345,0.038,0.0411,0.0427,0.0453,0.0498,0.0518,0.0524,0.0554,0.0557,0.0514,0.045,0.0354,0.0251,0.018,0.0095,0.0064,0.0104,0.0094,0.0041,0.0044,0.0009,0.0008,0.0008,0.0008,0.0008,0,0.0331,0.0352,0.0405,0.0434,0.0453,0.0495,0.0529,0.055,0.0577,0.0596,0.0612,0.0566,0.0524,0.0378,0.027,0.0122,0.0097,0.0047,0.0033,0.0044,0.0034,0.0038,0.0041,0.0007,0.0007,0.0007,0.0007,0,0.0341,0.0365,0.0394,0.0456,0.05,0.0553,0.0601,0.0627,0.0657,0.0664,0.0659,0.0585,0.0514,0.0388,0.0276,0.0167,0.0074,0.0042,0.0042,0.0029,0.0041,0.0033,0.0036,0.0005,0.0006,0.0006,0.0006,0,0.0351,0.0373,0.042,0.0474,0.0535,0.0595,0.0619,0.0654,0.0683,0.0699,0.0697,0.0617,0.0569,0.0412,0.0309,0.0202,0.0167,0.0118,0.0113,0.0113,0.0149,0.018,0.0176,0,0,0,0,0,0.0357,0.0387,0.0435,0.0498,0.0559,0.06,0.0663,0.0682,0.0713,0.0715,0.0707,0.064,0.0493,0.043,0.0324,0.0291,0.0143,0.0161,0.0082,-0.0002,-0.0,0.0024,0,0,0,0,0,0,0.0363,0.0407,0.0432,0.0511,0.0557,0.0629,0.0674,0.0695,0.0695,0.0706,0.0632,0.06,0.0458,0.0555,0.0318,0.0287,0.0218,0.0095,0.0092,-0.0002,-0.0001,0.0,0.0025,0,0,0,0,0]}]]